Location: Newark
(35.5261°N, 36.5886°E)
Time: 07:24:00
(UTC+00:00)

ISS - Visible Passes

Search period start: 13 November 2019 00:00
Search period end: 23 November 2019 00:00
Orbit: 412 x 421 km, 51.6° (Epoch: 13 November)

Date Brightness Start Highest point End Pass type
(mag) Time Alt. Az. Time Alt. Az. Time Alt. Az.
13 Nov -0.8 01:42:39 16° ENE 01:42:39 16° ENE 01:43:43 10° E visible
13 Nov -2.8 03:15:36 16° WNW 03:17:43 32° SW 03:20:45 10° SSE visible
14 Nov -3.6 02:29:40 61° SSW 02:29:40 61° SSW 02:32:44 10° SE visible
15 Nov -0.7 01:43:49 14° ESE 01:43:49 14° ESE 01:44:21 10° ESE visible
15 Nov -1.4 03:16:59 10° WSW 03:17:20 10° SW 03:17:40 10° SW visible
16 Nov -1.3 02:30:58 13° SSW 02:30:58 13° SSW 02:31:34 10° S visible
18 Nov -1.4 15:54:08 10° SSE 15:54:55 13° SSE 15:54:55 13° SSE visible
19 Nov -1.1 16:40:57 10° SW 16:41:56 18° SW 16:41:56 18° SW visible
20 Nov -3.6 15:52:37 10° SSW 15:55:52 54° SE 15:55:55 54° SE visible
21 Nov -2.5 15:04:37 10° S 15:07:30 27° SE 15:09:48 14° ENE visible
21 Nov -1.1 16:41:19 10° W 16:42:43 19° WNW 16:42:43 19° WNW visible
22 Nov -2.9 15:52:25 10° WSW 15:55:38 44° NW 15:56:30 35° N visible
